FW1003 Weather Reports


time (UTC)temp
C
wind
direction
speed
KPH
gust
KPH
rain 1hr
cm
rain 24hr
cm
rain mn
cm
humidity
%
barometer
mb
20260906131505 32 334 1.6 9.7 0.00 0.00 0.00 56 1013.5
20260906130005 32 13 1.6 9.7 0.00 0.00 0.00 57 1013.6
20260906124505 32 152 1.6 9.7 0.00 0.00 0.00 56 1013.6
20260906123005 32 296 1.6 9.7 0.00 0.00 0.00 55 1013.5
20260906121502 32 44 1.6 9.7 0.00 0.00 0.00 54 1013.6
20260906120001 33 131 3.2 12.9 0.00 0.00 0.00 54 1013.7
20260906114501 32 59 4.8 11.3 0.00 0.00 0.00 54 1013.6
20260906113101 33 77 3.2 9.7 0.00 0.00 0.00 54 1013.7
20260906111600 33 154 1.6 11.3 0.00 0.00 0.00 54 1013.8
20260906110059 33 255 3.2 11.3 0.00 0.00 0.00 54 1013.9
20260906104559 33 209 1.6 11.3 0.00 0.00 0.00 54 1013.7
20260906103057 33 165 3.2 12.9 0.00 0.00 0.00 54 1013.7
20260906101559 33 328 3.2 14.5 0.00 0.00 0.00 52 1013.9
20260906100053 33 213 1.6 11.3 0.00 0.00 0.00 54 1014.1
20260906094553 32 360 3.2 12.9 0.00 0.00 0.00 54 1014.0
20260906093057 33 157 1.6 11.3 0.00 0.00 0.00 55 1014.1
20260906091550 32 147 4.8 12.9 0.00 0.00 0.00 54 1014.1
20260906090049 32 186 3.2 19.3 0.00 0.00 0.00 53 1014.1
20260906084553 32 185 3.2 16.1 0.00 0.00 0.00 54 1014.1
20260906083048 32 170 4.8 14.5 0.00 0.00 0.00 54 1014.2
20260906081546 32 192 1.6 9.7 0.00 0.00 0.00 56 1014.2
20260906080052 32 186 6.4 16.1 0.00 0.00 0.00 56 1014.0
20260906074543 32 143 1.6 8.0 0.00 0.00 0.00 56 1014.2
20260906073037 32 171 3.2 14.5 0.00 0.00 0.00 58 1014.2
20260906071534 31 175 3.2 12.9 0.00 0.00 0.00 57 1014.3
20260906070031 31 177 4.8 14.5 0.00 0.00 0.00 56 1014.4
20260906064534 32 224 1.6 6.4 0.00 0.00 0.00 55 1014.3
20260906063028 32 158 1.6 6.4 0.00 0.00 0.00 57 1014.2
20260906061523 31 325 1.6 4.8 0.00 0.00 0.00 58 1014.3
20260906060023 30 183 1.6 6.4 0.00 0.00 0.00 60 1014.3
20260906054518 30 42 1.6 6.4 0.00 0.00 0.00 61 1014.1
20260906053020 30 96 0.0 4.8 0.00 0.00 0.00 64 1013.8
20260906051510 29 83 1.6 4.8 0.00 0.00 0.00 66 1013.8
20260906050006 28 43 0.0 0.0 0.00 0.00 0.00 69 1013.9
20260906044501 27 331 0.0 0.0 0.00 0.00 0.00 71 1014.0
20260906043057 26 331 0.0 0.0 0.00 0.00 0.00 74 1013.7
20260906041556 25 331 0.0 0.0 0.00 0.00 0.00 75 1013.9
20260906040051 24 331 0.0 0.0 0.00 0.00 0.00 75 1013.6
20260906034545 24 331 0.0 0.0 0.00 0.00 0.00 75 1013.5
20260906033044 24 331 0.0 0.0 0.00 0.00 0.00 75 1013.6
20260906031538 24 331 0.0 0.0 0.00 0.00 0.00 75 1013.5
20260906030037 23 331 0.0 0.0 0.00 0.00 0.00 74 1013.4
20260906024535 23 331 0.0 0.0 0.00 0.00 0.00 74 1013.4
20260906023042 24 331 0.0 0.0 0.00 0.00 0.00 74 1013.6
20260906021533 24 331 0.0 0.0 0.00 0.00 0.00 73 1013.5
20260906020033 24 331 0.0 0.0 0.00 0.00 0.00 73 1013.3
20260906014538 25 331 0.0 0.0 0.00 0.00 0.00 73 1013.3
20260906013030 25 331 0.0 0.0 0.00 0.00 0.00 74 1013.1
20260906011528 25 331 0.0 0.0 0.00 0.00 0.00 74 1013.4
20260906010028 25 331 0.0 0.0 0.00 0.00 0.00 74 1013.4
20260906004525 25 331 0.0 0.0 0.00 0.00 0.00 74 1013.3
20260906003025 25 331 0.0 0.0 0.00 0.00 0.00 74 1013.5
20260906001526 25 331 0.0 0.0 0.00 0.00 0.00 74 1013.5
20260906000023 24 331 0.0 3.2 0.00 0.00 0.00 73 1013.6
20260905234522 25 331 1.6 4.8 0.00 0.00 0.00 73 1013.6
20260905233022 25 331 0.0 3.2 0.00 0.00 0.00 73 1013.6
20260905231522 25 331 0.0 0.0 0.00 0.00 0.00 73 1013.7
20260905230021 25 331 0.0 0.0 0.00 0.00 0.00 72 1013.6
20260905224521 25 331 0.0 0.0 0.00 0.00 0.00 73 1013.5
20260905223021 25 331 0.0 0.0 0.00 0.00 0.00 72 1013.5
20260905221530 25 331 0.0 0.0 0.00 0.00 0.00 71 1013.7
20260905220117 25 331 0.0 0.0 0.00 0.00 0.00 71 1013.9
20260905214512 25 331 0.0 1.6 0.00 0.00 0.00 71 1014.0
20260905213009 25 331 0.0 3.2 0.00 0.00 0.00 72 1014.1
20260905211507 25 331 0.0 3.2 0.00 0.00 0.00 71 1014.3
20260905210009 25 331 0.0 3.2 0.00 0.00 0.00 71 1014.2
20260905204504 26 331 0.0 3.2 0.00 0.00 0.00 70 1014.3
20260905203004 26 331 0.0 3.2 0.00 0.00 0.00 70 1014.3
20260905201506 26 331 0.0 0.0 0.00 0.00 0.00 70 1014.3
20260905200004 26 331 0.0 0.0 0.00 0.00 0.00 69 1014.3
20260905194505 26 331 0.0 0.0 0.00 0.00 0.00 68 1014.3
20260905193008 27 331 0.0 0.0 0.00 0.00 0.00 68 1014.2
20260905191501 27 331 0.0 0.0 0.00 0.00 0.00 69 1014.3
20260905190002 27 331 0.0 0.0 0.00 0.00 0.00 68 1014.3
20260905184620 27 331 0.0 0.0 0.00 0.00 0.00 68 1014.4
20260905184501 27 331 0.0 0.0 0.00 0.00 0.00 68 1014.4
20260905183100 27 331 0.0 0.0 0.00 0.00 0.00 68 1014.5
20260905181559 27 331 0.0 0.0 0.00 0.00 0.00 67 1014.4
20260905181500 27 331 0.0 0.0 0.00 0.00 0.00 67 1014.3
20260905180058 27 331 0.0 0.0 0.00 0.00 0.00 67 1014.3
20260905174600 28 331 0.0 0.0 0.00 0.00 0.00 66 1014.3
20260905173058 28 331 0.0 0.0 0.00 0.00 0.00 65 1014.2
20260905171555 28 331 0.0 0.0 0.00 0.00 0.00 64 1014.1
20260905170059 28 331 0.0 0.0 0.00 0.00 0.00 64 1014.0
20260905164554 28 331 0.0 3.2 0.00 0.00 0.00 63 1013.7
20260905163054 28 331 0.0 3.2 0.00 0.00 0.00 63 1013.5
20260905161555 29 322 0.0 4.8 0.00 0.00 0.00 62 1013.4
20260905160052 29 309 0.0 1.6 0.00 0.00 0.00 62 1013.4
20260905154554 30 309 0.0 6.4 0.00 0.00 0.00 61 1013.4
20260905153051 30 37 0.0 3.2 0.00 0.00 0.00 60 1013.3
20260905151551 30 23 1.6 4.8 0.00 0.00 0.00 60 1013.3
20260905150050 30 310 0.0 6.4 0.00 0.00 0.00 60 1013.3
20260905144550 31 294 1.6 8.0 0.00 0.00 0.00 59 1013.2
20260905143050 31 325 3.2 9.7 0.00 0.00 0.00 58 1013.3
20260905141554 31 98 1.6 8.0 0.00 0.00 0.00 57 1013.2
20260905140050 32 321 1.6 9.7 0.00 0.00 0.00 57 1013.1
20260905134550 32 350 6.4 9.7 0.00 0.00 0.00 55 1013.1
20260905133047 32 61 3.2 9.7 0.00 0.00 0.00 55 1013.3